Home > Weather > Ahvaz > Past weeks

Flag for Iran Past Weather in Ahvaz, Iran — Yesterday and Last 2 Weeks

Now
100 °F

Clear.


Feels Like: 98 °F
Forecast: 89 / 115 °F
Wind: 7 mph from West

Location: Ahwaz

Current Time: Jul 28, 2016 at 1:51:58 AM

Latest Report: Jul 28, 2016 at 1:30 AM


Visibility: 10 mi

Pressure: 29.42 "Hg

Humidity: 20%

Dew Point: 52 °F

Location of AhvazLocation

Past Weather in Ahvaz — Graph

°F

Ahvaz Temperature Yesterday

Maximum temperature yesterday: 118 °F (at 3:00 PM)
Minimum temperature yesterday: 82 °F (at 5:26 AM)
Average temperature yesterday: 105 °F

High & Low Weather Summary for the Past Weeks

 TemperatureHumidityPressure
High122 °F (Jul 21, 4:00 PM)84% (Jul 20, 4:27 AM)29.59 "Hg (Jul 20, 4:27 AM)
Low82 °F (Jul 27, 5:26 AM)7% (Jul 13, 3:30 PM)29.30 "Hg (Jul 23, 6:30 PM)
Average105 °F23%29.42 "Hg
* Reported Jul 12 11:30 PM — Jul 28 12:26 AM, Ahvaz, Weather by CustomWeather, © 2016

Note: Actual official high and low records may vary slightly from our data, if they occured in-between our weather recording intervals... More about our weather records

Advertising

Ahvaz Weather History for the Previous 24 Hours

Scroll right to see more
 ConditionsComfort  
Time TempWeatherWind HumidityBarometerVisibility
12:26 AM
Thu, Jul 28
100 °FClear.5 mph20%29.42 "Hg10 mi
11:55 PM
Wed, Jul 27
100 °FClear.7 mph18%29.42 "Hg10 mi
11:30 PM95 °FClear.2 mph26%29.42 "Hg10 mi
10:52 PM95 °FClear.2 mph25%29.42 "Hg10 mi
10:30 PM99 °FClear.2 mph25%29.42 "Hg10 mi
9:53 PM102 °FClear.2 mph16%29.42 "Hg10 mi
9:30 PM102 °FSunny.2 mph16%29.42 "Hg10 mi
8:55 PM100 °FSunny.2 mph21%29.42 "Hg10 mi
8:30 PM102 °FSunny.2 mph18%29.42 "Hg10 mi
8:00 PM104 °FSunny.2 mph20%29.42 "Hg10 mi
7:30 PM111 °FSunny.2 mph14%29.42 "Hg10 mi
7:00 PM117 °FSunny.5 mph10%29.42 "Hg10 mi
6:30 PM117 °FSunny.5 mph10%29.42 "Hg10 mi
6:00 PM118 °FSunny.2 mph10%29.42 "Hg10 mi
5:30 PM118 °FSunny.5 mph9%29.42 "Hg10 mi
5:00 PM117 °FSunny.9 mph8%29.42 "Hg10 mi
4:30 PM118 °FSunny.5 mph9%29.42 "Hg10 mi
4:00 PM118 °FSunny.5 mph9%29.42 "Hg10 mi
3:30 PM117 °FSunny.7 mph10%29.45 "Hg10 mi
3:00 PM118 °FSunny.5 mph9%29.45 "Hg10 mi
2:30 PM117 °FSunny.7 mph9%29.45 "Hg10 mi
2:00 PM117 °FSunny.7 mph9%29.45 "Hg10 mi
1:30 PM117 °FSunny.5 mph10%29.45 "Hg10 mi
1:00 PM115 °FSunny.7 mph10%29.47 "Hg10 mi
12:30 PM113 °FSunny.5 mph11%29.47 "Hg10 mi
12:00 PM113 °FSunny.5 mph11%29.47 "Hg10 mi
11:30 AM109 °FSunny.7 mph15%29.47 "Hg10 mi
11:00 AM108 °FSunny.5 mph17%29.47 "Hg10 mi
10:30 AM106 °FSunny.7 mph18%29.47 "Hg10 mi
10:00 AM104 °FSunny.7 mph19%29.47 "Hg10 mi
9:30 AM100 °FSunny.5 mph22%29.47 "Hg10 mi
9:00 AM100 °FSunny.5 mph21%29.47 "Hg10 mi
8:30 AM97 °FSunny.5 mph22%29.47 "Hg10 mi
8:00 AM95 °FSunny.2 mph26%29.47 "Hg10 mi
7:30 AM91 °FClear.5 mph24%29.47 "Hg10 mi
6:30 AM86 °FClear.2 mph29%29.45 "Hg10 mi
5:26 AM82 °FClear.2 mph40%29.45 "Hg10 mi
4:26 AM90 °FClear.2 mph29%29.42 "Hg10 mi
3:26 AM95 °FClear.2 mph22%29.42 "Hg10 mi
2:25 AM99 °FClear.7 mph18%29.45 "Hg10 mi
1:26 AM100 °FClear.7 mph16%29.45 "Hg10 mi
Weather by CustomWeather, © 2016

See weather overviewHow to use our weather pages